Regional Weather Roundup
Issued by NWS

Home | Current Version | Previous Version | Text Only | Print | Product List | Glossary Off
Versions: 1 2 3 4 5 6 7 8 9 10 11 12 13 14 15 16 17 18 19 20 21 22 23 24 25 26 27 28 29 30 31 32 33 34 35 36 37 38 39 40 41 42 43 44 45 46 47 48 49 50

000
ASUS45 KBOU 222007
RWRCO

WEATHER ROUNDUP FOR COLORADO
NATIONAL WEATHER SERVICE DENVER/BOULDER CO
100 PM MST SAT NOV 22 2014

NOTE: "FAIR" INDICATES FEW OR NO CLOUDS BELOW 12000 FEET WITH NO
SIGNIFICANT WEATHER AND/OR OBSTRUCTIONS TO VISIBILITY.

COZ001>005-013-030-031-222100-
...NORTHWEST COLORADO...

CITY           SKY/WX    TMP DP  RH WIND       PRES   REMARKS
CRAIG          CLOUDY    46  21  37 SW16G30   29.82F
HAYDEN         CLOUDY    45  21  39 W9        29.82F
MEEKER         CLOUDY    47  20  34 SW16G28   29.85F
MOUNT WERNER   NOT AVBL
STEAMBOAT SPGS CLOUDY    43  19  38 CALM      29.83F
WALDEN         MOSUNNY   39  18  41 SW30G36   29.80F
$$

COZ006>008-011-222100-
...WEST CENTRAL VALLEYS...

CITY           SKY/WX    TMP DP  RH WIND       PRES   REMARKS
GRAND JUNCTION CLOUDY    43  21  41 W8        29.90F
MONTROSE       PTSUNNY   53  21  28 CALM      29.92F
EAGLE          MOSUNNY   46  21  36 W10G21    29.88F
RIFLE          CLOUDY    42  20  41 CALM      29.90F
DELTA          PTSUNNY   55  21  26 NE3       29.91F
NUCLA          PTSUNNY   54  21  28 S12G22    29.98F
$$

COZ017>023-064>068-222100-
...SOUTHWEST COLORADO...

CITY           SKY/WX    TMP DP  RH WIND       PRES   REMARKS
DURANGO        SUNNY     49  22  34 W15       30.00F
CORTEZ         SUNNY     50  21  32 SW8       30.01F
PAGOSA SPRINGS SUNNY     46  16  29 SW12G17   30.01F
TELLURIDE      MOSUNNY   43  10  26 CALM      30.02F
WOLF CREEK PAS SUNNY     27  14  59 SW25G37   30.03F WCI  11
$$

COZ009-010-012-014-032>034-037-058>063-222100-
...CENTRAL COLORADO...

CITY           SKY/WX    TMP DP  RH WIND       PRES   REMARKS
ASPEN          MOSUNNY   44  17  33 N7        29.88F
BUENA VISTA    SUNNY     46  10  23 W33G44    29.81F
COPPER MTN     SUNNY     34   5  29 W20G25    29.94F WCI  22
BERTHOUD PASS  FAIR      19  14  79 NW33G43   29.88F WCI   0
COTTONWOOD PAS SUNNY     41   3  20 W31G45    29.85F
GUNNISON       SUNNY     28  16  59 CALM      30.01F
KREMMLING      SUNNY     46  14  27 SW7G22    29.86F
LEADVILLE      SUNNY     38  11  32 NW18G24   29.88F
MONARCH PASS   SUNNY     23  14  68 W49G62    30.05S WCI   2
SALIDA         SUNNY     52   8  17 SW21G28   29.90F
SUNLIGHT       CLOUDY    34  23  64 SW3       29.97F
WILKERSON PASS MOSUNNY   37   9  30 SW22G31   29.85F
$$

COZ069>075-222100-
...SAN LUIS VALLEY/SANGRE DE CRISTO MOUNTAINS...

CITY           SKY/WX    TMP DP  RH WIND       PRES   REMARKS
ALAMOSA        SUNNY     45  15  30 S7        29.94F
LA VETA PASS   SUNNY     34  14  44 S20G41    29.87F WCI  22
SAGUACHE       SUNNY     43  18  36 S9        29.94F
$$

COZ035-036-038>040-222100-
...NORTHERN COLORADO FRONT RANGE...

CITY           SKY/WX    TMP DP  RH WIND       PRES   REMARKS
DENVER INTL AP PTSUNNY   63  12  13 S9        29.59F
DMNS CITY PARK   N/A     63  11  13 SW2       29.59S
AURORA         PTSUNNY   60  15  17 SW12      29.61F
FRONT RANGE AP PTSUNNY   64  14  14 SW10      29.60F
ERIE MUNI ARPT PTSUNNY   60  14  16 NE7       29.58F
BOULDER MUN AP PTSUNNY   57  18  21 NE7       29.58F
CENTENNIAL     PTSUNNY   62  13  14 SW17      29.61F
BROOMFIELD     PTSUNNY   63  12  14 SW12      29.61F
FORT COLLINS   CLOUDY    41  27  56 NE8       29.61F
LONGMONT       CLOUDY    56  24  28 N7        29.58F
$$

COZ041-046-047-076>085-087-088-222100-
...PIKES PEAK/PALMER DIVIDE AND SOUTHERN FOOTHILLS...

CITY           SKY/WX    TMP DP  RH WIND       PRES   REMARKS
COLO. SPRINGS  MOSUNNY   60   6  11 SE13      29.67F
A. F. ACADEMY  MOSUNNY   57   6  13 SW14      29.67F
ELLICOTT       NOT AVBL
FALCON         NOT AVBL
FORT CARSON    SUNNY     60   8  13 E7        29.64F
LIMON          MOSUNNY   61   3  10 VRB5      29.62F
MONUMENT HILL  MOSUNNY   57   9  14 W20       29.67F
TRINIDAD       SUNNY     58  22  24 NE7       29.72F
$$

COZ042>045-048>051-090-091-222100-
...NORTHEAST COLORADO...

CITY           SKY/WX    TMP DP  RH WIND       PRES   REMARKS
GREELEY ARPT   CLOUDY    45  25  45 N6        29.61F
AKRON          MOSUNNY   63   9  12 SW10      29.60F
BURLINGTON     SUNNY     65  13  13 SW21      29.63F
WRAY           CLOUDY    68  11  10 W7        29.58F
STERLING       MOSUNNY   63  27  25 SW6       29.58F
HOLYOKE        CLOUDY    68  10  10 SW7       29.59F
FORT MORGAN    MOSUNNY   61  15  16 S5        29.60F
$$

COZ086-089-092>099-222100-
...SOUTHEAST COLORADO...

CITY           SKY/WX    TMP DP  RH WIND       PRES   REMARKS
PUEBLO         SUNNY     65  18  16 W14G24    29.64F
LA JUNTA       SUNNY     66  22  18 SW23      29.64F
LAMAR          SUNNY     66  22  18 SW12G21   29.65F
SPRINGFIELD      N/A     67  15  13 SW14G22   29.67F
$$


USA.gov is the U.S. government's official web portal to all federal, state and local government web resources and services.